Location: Kimberly
(42.5380°N, 114.3640°W)
Time: 02:32:39
(UTC-06:00)

Tiangong 2 - Visible Passes

Search period start: 23 June 2017 00:00
Search period end: 03 July 2017 00:00
Orbit: 391 x 396 km, 42.8° (Epoch: 22 June)

Date Brightness Start Highest point End Pass type
(mag) Time Alt. Az. Time Alt. Az. Time Alt. Az.
29 Jun 2.5 05:15:12 10° SSW 05:17:59 27° SSE 05:20:46 10° E visible
30 Jun 3.0 04:20:52 17° SSE 04:21:22 18° SSE 04:23:36 10° ESE visible
01 Jul 1.6 04:58:51 16° SW 05:01:10 45° SSE 05:04:16 10° E visible
02 Jul 2.2 04:04:25 30° SSE 04:04:26 30° SSE 04:07:18 10° E visible
